Regional Weather Roundup
Issued by NWS

Home | Current Version | Previous Version | Text Only | Print | Product List | Glossary Off
Versions: 1 2 3 4 5 6 7 8 9 10 11 12 13 14 15 16 17 18 19 20 21 22 23 24 25 26 27 28 29 30 31 32 33 34 35 36 37 38 39 40 41 42 43 44 45 46 47 48 49 50

000
ASUS45 KTFX 251010
RWRMT
MONTANA REGIONAL WEATHER ROUNDUP
NATIONAL WEATHER SERVICE GREAT FALLS MT
400 AM MDT THU AUG 25 2016

NOTE: "FAIR" INDICATES FEW OR NO CLOUDS BELOW 12000 FEET WITH NO
SIGNIFICANT WEATHER AND/OR OBSTRUCTIONS TO VISIBILITY.

MTZ001>007-043-251100-
WEST OF THE DIVIDE

CITY           SKY/WX    TMP DP  RH WIND       PRES   REMARKS
KALISPELL        N/A     40  35  83 VRB6      30.26F
MISSOULA         N/A     46  38  73 W5        30.28S
BUTTE          CLEAR     37  29  72 S6        30.34F
MULLAN PASS      N/A     48  34  58 SE9       30.32F
DEER LODGE       N/A     37  30  75 CALM      30.35F
EUREKA           N/A     43  34  70 CALM      30.28S
HAMILTON         N/A     46  37  71 S7        30.27F
LIBBY            N/A     45  36  70 CALM      30.27S
PLAINS           N/A     45  37  73 SW1       30.24R
RONAN            N/A     43  37  79 CALM      30.28S
THOMPSON FALLS   N/A     44  38  79 CALM      30.28R
$$

MTZ008-052>055-251100-
SOUTHWEST MONTANA

CITY           SKY/WX    TMP DP  RH WIND       PRES   REMARKS
BOZEMAN        CLEAR     39  35  86 NE5       30.33F
DILLON         CLEAR     38  31  76 SW7       30.32S
W YELLOWSTONE  PTCLDY    32  28  86 CALM      30.35F
ENNIS          CLEAR     39  30  70 S6        30.37F
THREE FORKS      N/A     37  34  89 CALM      30.28F
TWIN BRIDGES     N/A     47  31  54 NE7       30.27S
$$

MTZ009-010-012-014-046-048-049-054-251100-
EAST SLOPES AND CENTRAL MONTANA

CITY           SKY/WX    TMP DP  RH WIND       PRES   REMARKS
CUT BANK         N/A     38  34  85 NW8       30.29F
GREAT FALLS    CLEAR     42  37  82 W9        30.30S
MALMSTROM AFB  CLEAR     48  41  76 MISG      30.29F
HELENA         CLEAR     46  35  65 CALM      30.31S
CHOTEAU          N/A     41  37  87 SW7       30.31F
CONRAD           N/A     40  39  96 CALM      30.28S
$$

MTZ011-013-016-021-045-047-050-051-251100-
NORTH CENTRAL MONTANA

CITY           SKY/WX    TMP DP  RH WIND       PRES   REMARKS
HAVRE          CLEAR     40  39  97 SW5       30.27F
LEWISTOWN      CLOUDY    43  38  82 S5        30.31S
N BAR RANCH      N/A     43  36  75 W5        30.32F
CHINOOK          N/A     45  43  93 W3        30.26F
$$

MTZ017>020-022>027-061-062-251100-
NORTHEAST MONTANA

CITY           SKY/WX    TMP DP  RH WIND       PRES   REMARKS
GLASGOW        CLOUDY    52  43  71 W9        30.23S
JORDAN           N/A     51  42  71 W6        30.26S
SIDNEY         CLOUDY    56  46  69 NW14      30.19S
WOLF POINT     LGT RAIN  54  50  86 SW5       30.22F
POPLAR           N/A     54  48  82 W6        30.22S
SCOBEY           N/A     48  42  80 W2        30.18
$$

MTZ028>42-056>058-251100-
SOUTHCENTRAL AND SOUTHEAST MONTANA

CITY           SKY/WX    TMP DP  RH WIND       PRES   REMARKS
BAKER          MOCLDY    48  42  80 W9        30.24S
BILLINGS       PTCLDY    51  39  63 SW5       30.30F
LIVINGSTON     CLOUDY    37  34  89 W3        30.32F
MILES CITY     PTCLDY    49  43  80 CALM      30.27R
EKALAKA          N/A     49  43  80 NW8       30.22
FORSYTH          N/A     52  43  71 CALM      30.27F
LAUREL           N/A     45  35  67 W3        30.26F
ROUNDUP          N/A     48  37  65 SW6       30.19S
$$

REGIONAL REPORTS...DAKOTAS

CITY           SKY/WX    TMP DP  RH WIND       PRES   REMARKS
WILLISTON      CLOUDY    55  47  74 NW13      30.17R
MINOT          CLOUDY    54  52  93 W17       30.06R FOG
DICKINSON      MOCLDY    49  46  90 W15       30.15S
CROSBY         CLOUDY    52  50  93 W7        30.17S
WATFORD CITY   CLOUDY    50  50 100 NW10      30.17R
BISMARCK       CLOUDY    57  48  72 NW15G23   30.10R
GRAND FORKS    CLOUDY    59  54  83 W12       29.90S
FARGO          CLEAR     56  51  84 SW9       29.97S
BUFFALO SD       N/A     46  42  86 W6        30.17R
RAPID CITY     CLOUDY    55  41  59 NW14      30.23S
$$

REGIONAL REPORTS...WYOMING/IDAHO/WASHINGTON

CITY           SKY/WX    TMP DP  RH WIND       PRES   REMARKS
GILLETTE       CLOUDY    50  41  71 NW8       30.31S
SHERIDAN       CLOUDY    52  42  69 NW5       30.31F
BUFFALO WY     CLOUDY    51  38  60 NW6       30.34F
CODY           CLOUDY    48  39  71 NW6       30.33F
YELLOWSTONE LA   N/A     31  31 100 CALM      30.38F
IDAHO FALLS    CLEAR     43  35  73 N6        30.23S
SALMON         CLEAR    N/A N/A N/A MISG        N/A
BOISE            N/A     60  37  42 S7        30.08R
SPOKANE          N/A     61  38  42 CALM      30.19S
$$

REGIONAL REPORTS...ALBERTA

CITY           SKY/WX    TMP DP  RH WIND       PRES   REMARKS
EDMONTON       LGT RAIN  55  52  88 W6        30.18F
CALGARY        MOCLDY    50  43  76 CALM      30.26S
LETHBRIDGE     CLEAR     43  39  87 W5        30.26S
MEDICINE HAT   CLEAR     46  45  93 SW8       30.22F
WATERTON GATE    N/A     43  37  81 S8          N/A
CARDSTON         N/A     39  34  81 S3          N/A
ONEFOUR          N/A     45  41  87 N8          N/A
$$

REGIONAL REPORTS...SASKATCHEWAN

CITY           SKY/WX    TMP DP  RH WIND       PRES   REMARKS
SWIFT CURRENT  PTCLDY    48  45  87 W10       30.19S
REGINA         CLEAR     43  43 100 W7        30.14S
SASKATOON      CLEAR     43  43 100 SW7       30.14S
CYPRESS HILLS    N/A     45  39  81 W3          N/A
VAL MARIE        N/A     41  39  93 W1          N/A
ROCKGLEN         N/A     46  43  87 NW5         N/A
ASSINIBOIA       N/A     55  52  88 W8          N/A
$$



USA.gov is the U.S. government's official web portal to all federal, state and local government web resources and services.